Weather History for KLBF - April, 2014

Change the Weather History Date:

Tuesday, April 8, 2014

  Actual Average Record
Temperature  
Mean Temperature 43 °F 45 °F  
Max Temperature 65 °F 60 °F 90 °F (1887)
Min Temperature 21 °F 30 °F 11 °F (2003)
Degree Days  
Heating Degree Days 22 20  
Month to date heating degree days 190 169  
Since 1 July heating degree days 6255 6034  
Cooling Degree Days 0 0  
Month to date cooling degree days 0 0  
Year to date cooling degree days 0 0  
Moisture  
Dew Point 25 °F    
Average Humidity 58    
Maximum Humidity 92    
Minimum Humidity 23    
Precipitation  
Precipitation 0.00 in 0.06 in 0.69 in (1882)
Month to date precipitation T 0.44  
Year to date precipitation 1.84 2.33  
Snow  
Snow 0.00 in 0.10 in 6.20 in (1961)
Month to date snowfall T 1.2  
Since 1 July snowfall 28.7 26.5  
Snow Depth 0.00 in    
Sea Level Pressure  
Sea Level Pressure 30.12 in    
Wind  
Wind Speed 6 mph (NNW)    
Max Wind Speed 16 mph    
Max Gust Speed 24 mph    
Visibility 10 miles    
Events      
T = Trace of Precipitation, MM = Missing Value Source: NWS Daily Summary

Daily Weather History Graph

Daily Weather History Graph

Search for Another Location

Airport or City:

Trip Planner

Search our weather history database for the weather conditions in past years. The results will help you decide how hot, cold, wet, or windy it might be!

Date:

Astronomy

Apr. 08, 2014 Rise Set
Actual Time 7:14 AM CDT 8:15 PM CDT
Civil Twilight 6:46 AM CDT 8:43 PM CDT
Nautical Twilight 6:12 AM CDT 9:17 PM CDT
Astronomical Twilight 5:37 AM CDT 9:52 PM CDT
Moon 2:07 PM CDT (4/8) 3:31 AM CDT (4/8)
Length of Visible Light 13h 57m
Length of Day
13h 00m
Waxing Gibbous, 63% of the Moon is Illuminated
Apr 8
Waxing Gibbous
Apr 15
Full
Apr 22
Last Quarter
Apr 29
New
May 6
First Quarter

Hourly Weather History & Observations

Time (CDT) Temp. Windchill Dew Point Humidity Pressure Visibility Wind Dir Wind Speed Gust Speed Precip Events Conditions
12:53 AM 27.0 °F 19.5 °F 24.1 °F 89% 30.14 in 10.0 mi NW 6.9 mph - N/A   Clear
1:53 AM 27.0 °F 20.5 °F 23.0 °F 85% 30.14 in 10.0 mi NW 5.8 mph - N/A   Clear
2:53 AM 24.1 °F 18.2 °F 21.0 °F 88% 30.15 in 10.0 mi NW 4.6 mph - N/A   Clear
3:53 AM 23.0 °F 15.8 °F 19.0 °F 85% 30.15 in 10.0 mi NW 5.8 mph - N/A   Clear
4:53 AM 23.0 °F 15.8 °F 19.9 °F 88% 30.15 in 10.0 mi NW 5.8 mph - N/A   Clear
5:53 AM 25.0 °F 18.1 °F 21.0 °F 85% 30.15 in 10.0 mi NNW 5.8 mph - N/A   Mostly Cloudy
6:53 AM 24.1 °F 19.7 °F 21.0 °F 88% 30.16 in 10.0 mi North 3.5 mph - N/A   Clear
7:53 AM 24.1 °F 19.7 °F 19.9 °F 84% 30.18 in 10.0 mi NW 3.5 mph - N/A   Clear
8:53 AM 33.1 °F - 27.0 °F 78% 30.18 in 10.0 mi Calm Calm - N/A   Clear
9:53 AM 42.1 °F - 28.9 °F 60% 30.17 in 10.0 mi Calm Calm - N/A   Clear
10:53 AM 52.0 °F - 27.0 °F 38% 30.18 in 10.0 mi North 5.8 mph - N/A   Clear
11:53 AM 55.9 °F - 26.1 °F 32% 30.18 in 10.0 mi NNE 5.8 mph - N/A   Clear
12:53 PM 57.9 °F - 26.1 °F 30% 30.17 in 10.0 mi NNW 12.7 mph 19.6 mph N/A   Clear
1:53 PM 61.0 °F - 24.1 °F 24% 30.14 in 10.0 mi North 11.5 mph 20.7 mph N/A   Clear
2:53 PM 62.1 °F - 25.0 °F 24% 30.13 in 10.0 mi NW 9.2 mph - N/A   Clear
3:53 PM 62.1 °F - 24.1 °F 23% 30.10 in 10.0 mi Calm Calm - N/A   Clear
4:53 PM 64.9 °F - 27.0 °F 24% 30.07 in 10.0 mi North 6.9 mph - N/A   Clear
5:53 PM 64.9 °F - 27.0 °F 24% 30.05 in 10.0 mi Calm Calm - N/A   Clear
6:53 PM 62.1 °F - 28.0 °F 28% 30.05 in 10.0 mi South 6.9 mph - N/A   Clear
7:53 PM 57.0 °F - 30.0 °F 36% 30.04 in 10.0 mi SSE 4.6 mph - N/A   Clear
8:53 PM 46.0 °F 41.9 °F 30.0 °F 54% 30.06 in 10.0 mi ESE 8.1 mph - N/A   Clear
9:53 PM 42.1 °F 37.1 °F 28.9 °F 60% 30.05 in 10.0 mi ESE 8.1 mph - N/A   Clear
10:53 PM 39.9 °F 35.1 °F 28.9 °F 65% 30.03 in 10.0 mi ESE 6.9 mph - N/A   Clear
11:53 PM 48.0 °F - 28.9 °F 48% 30.00 in 10.0 mi South 10.4 mph - N/A   Clear